Location: Sternwarte ZA, Rosenfeld-Brittheim
(48.2889°N, 8.6789°E)
Time: 07:15:25
(UTC+02:00)

Amateur Radio Satellites - All Passes

Search period start: 27 June 2017 06:45
Search period end: 28 June 2017 06:45
Location: Sternwarte ZA, Rosenfeld-Brittheim, 48.2889°N, 8.6789°E

Satellite Date Start Highest point End Downlink Frequencies (MHz)
Time Altitude Azimuth
NUDT-PHONESAT 27 Jun 06:54:50 06:57:22 17° 92° (E) 06:59:53 437.300
YUBILEINY 27 Jun 06:58:04 07:01:02 12° 43° (NE) 07:03:59 435.215
DOVE 4 27 Jun 06:58:24 07:03:16 61° 101° (E) 07:08:21 437.250
STARS 27 Jun 06:59:11 07:02:30 21° 267° (W) 07:05:51 437.465
STRAND 1 27 Jun 07:01:17 07:05:53 34° 64° (ENE) 07:10:31 437.568
XW-2F 27 Jun 07:14:14 07:17:43 35° 97° (E) 07:21:10 145.980 - 146.000
RS-15 27 Jun 07:17:14 07:28:59 58° 245° (WSW) 07:40:09 29.354- 29.394
AO-7 27 Jun 07:18:14 07:25:11 31° 310° (NW) 07:32:08 .
XW-2D 27 Jun 07:19:11 07:22:49 43° 99° (E) 07:26:24 145.860 - 145.880
XW-2B 27 Jun 07:28:10 07:31:53 53° 100° (E) 07:35:33 145.730 - 145.750
LilacSat-2 27 Jun 07:29:11 07:32:57 59° 101° (E) 07:36:40 437.200
CUTE-I 27 Jun 07:30:22 07:35:34 48° 99° (E) 07:40:45 437.470
BEESAT 2 27 Jun 07:32:10 07:35:34 26° 244° (WSW) 07:38:56 435.950
XW-2C 27 Jun 07:43:42 07:47:30 83° 103° (ESE) 07:51:15 145.795 - 145.815
Tancredo 1 27 Jun 07:50:59 07:52:15 12° 136° (SE) 07:53:31 437.200
HO-68 27 Jun 07:52:26 07:58:23 27° 92° (E) 08:04:17 435.675
KAITUO 1B 27 Jun 07:54:12 07:57:56 85° 103° (ESE) 08:01:38 145.475/437.950
UWE-3 27 Jun 08:13:49 08:14:50 11° 85° (E) 08:15:51 435.000/436.395/437.385
O/OREOS (USA 219) 27 Jun 08:18:00 08:22:14 42° 251° (WSW) 08:26:25 437.305
ISS 27 Jun 08:27:14 08:29:07 15° 136° (SE) 08:31:01 437.550
NUDT-PHONESAT 27 Jun 08:27:58 08:31:27 39° 290° (WNW) 08:34:54 437.300
SEEDS 27 Jun 08:29:57 08:33:35 28° 95° (E) 08:37:10 437.485
DOVE 4 27 Jun 08:36:56 08:40:35 22° 298° (WNW) 08:44:22 437.250
STRAND 1 27 Jun 08:40:16 08:45:01 37° 263° (W) 08:49:49 437.568
XW-2F 27 Jun 08:48:49 08:51:40 21° 295° (WNW) 08:54:30 145.980 - 146.000
CUTE 1.7 + AOD 2 27 Jun 08:49:59 08:54:13 69° 103° (ESE) 08:58:23 437.475
YUBILEINY 27 Jun 08:52:18 09:00:46 46° 70° (ENE) 09:09:07 435.215
XW-2A 27 Jun 08:53:54 08:57:18 56° 101° (E) 09:00:37 145.665 - 145.685
XW-2D 27 Jun 08:54:07 08:56:42 18° 297° (WNW) 08:59:15 145.860 - 145.880
XW-2B 27 Jun 09:03:28 09:05:40 15° 298° (WNW) 09:07:53 145.730 - 145.750
AO-73 27 Jun 09:03:48 09:06:47 17° 89° (E) 09:09:43 145.935
LilacSat-2 27 Jun 09:04:44 09:06:47 14° 299° (WNW) 09:08:50 437.200
TIGRISAT 27 Jun 09:09:51 09:12:53 17° 59° (ENE) 09:15:55 435.000
CUTE-I 27 Jun 09:10:48 09:15:25 30° 298° (WNW) 09:20:00 437.470
FO-29 27 Jun 09:13:03 09:18:46 36° 60° (ENE) 09:25:08 435.910
AO-7 27 Jun 09:14:07 09:15:16 10° 335° (NNW) 09:16:25 .
AAUSAT CUBESAT 2 27 Jun 09:16:07 09:20:01 40° 98° (E) 09:23:55 437.432
CUBEBUG 2 27 Jun 09:16:55 09:21:39 70° 102° (ESE) 09:26:15 437.445
XW-2C 27 Jun 09:20:13 09:21:05 11° 301° (WNW) 09:21:58 145.795 - 145.815
Tancredo 1 27 Jun 09:24:20 09:27:20 66° 153° (SSE) 09:30:22 437.200
Oscar 11 27 Jun 09:28:41 09:32:09 23° 93° (E) 09:35:36 .
KAITUO 1B 27 Jun 09:31:00 09:31:19 10° 301° (WNW) 09:31:38 145.475/437.950
RS-15 27 Jun 09:33:21 09:38:26 14° 269° (W) 09:43:26 29.354- 29.394
ZACube-1 27 Jun 09:38:55 09:43:11 41° 97° (E) 09:47:20 437.345
HO-68 27 Jun 09:39:33 09:46:42 69° 292° (WNW) 09:53:48 435.675
M-CUBED/EXP-1 PRIME 27 Jun 09:41:16 09:44:31 79° 72° (ENE) 09:47:49 437.505
UWE-3 27 Jun 09:47:23 09:52:02 86° 102° (ESE) 09:56:32 435.000/436.395/437.385
UNISAT 6 27 Jun 09:50:48 09:55:07 40° 68° (ENE) 09:59:31 437.425
ISS 27 Jun 10:01:53 10:05:09 73° 153° (SSE) 10:08:26 437.550
SEEDS 27 Jun 10:05:35 10:09:16 31° 293° (WNW) 10:12:56 437.485
PRISM 27 Jun 10:08:00 10:11:58 57° 72° (ENE) 10:15:58 437.425
CUTE 1.7 + AOD 2 27 Jun 10:27:11 10:29:32 15° 300° (WNW) 10:31:52 437.475
XW-2A 27 Jun 10:28:10 10:29:35 12° 299° (WNW) 10:30:59 145.665 - 145.685
DELFI C3 27 Jun 10:28:35 10:31:55 26° 95° (E) 10:35:14 145.870
AO-73 27 Jun 10:39:01 10:43:24 56° 288° (WNW) 10:47:39 145.935
TIGRISAT 27 Jun 10:44:23 10:49:01 72° 258° (WSW) 10:53:44 435.000
YUBILEINY 27 Jun 10:49:19 10:57:39 48° 272° (W) 11:05:54 435.215
AAUSAT CUBESAT 2 27 Jun 10:52:05 10:55:15 22° 296° (WNW) 10:58:25 437.432
CUBEBUG 2 27 Jun 10:54:37 10:57:43 18° 301° (WNW) 11:00:46 437.445
EO-79 27 Jun 10:56:37 10:59:00 15° 59° (ENE) 11:01:24 145.935-145.965
FO-29 27 Jun 10:57:30 11:03:33 52° 263° (W) 11:10:28 435.910
Tancredo 1 27 Jun 11:00:05 11:03:02 44° 353° (N) 11:05:59 437.200
EO-88 27 Jun 11:03:16 11:06:45 40° 98° (E) 11:10:11 145.990 - 145.960
Oscar 11 27 Jun 11:04:24 11:08:26 39° 291° (WNW) 11:12:26 .
DUCHIFAT 1 27 Jun 11:08:24 11:10:56 16° 60° (ENE) 11:13:30 145.980
ZACube-1 27 Jun 11:15:37 11:19:14 24° 296° (WNW) 11:22:48 437.345
NANOSAT C BR1 27 Jun 11:17:07 11:20:17 21° 62° (ENE) 11:23:27 145.865
LO-87 27 Jun 11:23:04 11:23:23 10° 88° (E) 11:23:41 145.935 - 145.965
UWE-3 27 Jun 11:25:24 11:27:48 14° 303° (WNW) 11:30:11 435.000/436.395/437.385
PCSat 27 Jun 11:25:29 11:28:29 15° 104° (ESE) 11:31:28 145.827
AIST 2D 27 Jun 11:25:42 11:29:05 43° 72° (ENE) 11:32:29 435.315
UNISAT 6 27 Jun 11:28:00 11:31:56 27° 267° (W) 11:35:56 437.425
HO-68 27 Jun 11:28:41 11:33:14 18° 313° (NW) 11:37:47 435.675
ISS 27 Jun 11:38:34 11:41:46 46° 354° (N) 11:44:59 437.550
PRISM 27 Jun 11:45:18 11:47:37 15° 270° (W) 11:49:57 437.425
POLYITAN 1 27 Jun 11:55:15 11:59:24 50° 70° (ENE) 12:03:34 437.675
ESTCUBE 1 27 Jun 12:02:46 12:06:05 20° 92° (E) 12:09:23 437.505/2401.250
DELFI C3 27 Jun 12:03:13 12:06:42 30° 292° (WNW) 12:10:10 145.870
Oscar 19 27 Jun 12:03:38 12:05:19 12° 51° (NE) 12:06:59 437.125/150
QB50P2 27 Jun 12:06:04 12:10:19 71° 74° (ENE) 12:14:36 145.880/145.840
BUGSAT 1 27 Jun 12:10:52 12:14:00 21° 63° (ENE) 12:17:11 437.445
EO-79 27 Jun 12:29:58 12:34:13 73° 256° (WSW) 12:38:32 145.935-145.965
Tancredo 1 27 Jun 12:35:56 12:38:55 52° 13° (NNE) 12:41:55 437.200
EO-88 27 Jun 12:37:39 12:40:09 18° 296° (WNW) 12:42:39 145.990 - 145.960
DUCHIFAT 1 27 Jun 12:41:54 12:46:07 67° 258° (WSW) 12:50:22 145.980
AO-7 27 Jun 12:49:24 12:52:58 13° 31° (NNE) 12:56:32 .
NANOSAT C BR1 27 Jun 12:51:35 12:55:41 48° 261° (W) 12:59:50 145.865
LO-87 27 Jun 12:53:37 12:57:15 70° 287° (WNW) 13:00:53 145.935 - 145.965
AIST 2D 27 Jun 13:00:27 13:02:31 15° 269° (W) 13:04:36 435.315
PCSat 27 Jun 13:05:38 13:11:05 87° 119° (ESE) 13:16:33 145.827
Gurwin Techsat 1B 27 Jun 13:07:44 13:12:00 25° 60° (ENE) 13:16:16 435.225
ISS 27 Jun 13:15:19 13:18:35 58° 14° (NNE) 13:21:51 437.550
POLYITAN 1 27 Jun 13:32:28 13:35:28 18° 269° (W) 13:38:29 437.675
VELOX 1 27 Jun 13:32:34 13:36:44 38° 98° (E) 13:40:53 145.980
Oscar 19 27 Jun 13:38:35 13:43:40 63° 71° (ENE) 13:48:46 437.125/150
ESTCUBE 1 27 Jun 13:38:49 13:43:10 50° 290° (WNW) 13:47:29 437.505/2401.250
SPROUT 27 Jun 13:40:09 13:44:24 51° 100° (E) 13:48:34 437.525
QB50P2 27 Jun 13:44:30 13:46:36 13° 272° (W) 13:48:42 145.880/145.840
BUGSAT 1 27 Jun 13:45:05 13:49:05 45° 261° (W) 13:53:09 437.445
DX 1 27 Jun 13:47:01 13:50:13 19° 92° (E) 13:53:24 434.975-435.025
50 SAT 27 Jun 13:59:20 14:02:27 32° 98° (E) 14:05:34 437.505
UKube-1 27 Jun 14:00:35 14:03:37 18° 92° (E) 14:06:38 .
Tancredo 1 27 Jun 14:11:34 14:14:28 42° 212° (SSW) 14:17:23 437.200
ITAMSAT 1 27 Jun 14:22:03 14:25:27 18° 56° (NE) 14:28:51 435.822/435.867
SO-50 27 Jun 14:23:43 14:27:40 30° 117° (ESE) 14:31:37 436.795
AO-7 27 Jun 14:35:57 14:43:31 41° 55° (NE) 14:51:09 .
Gurwin Techsat 1B 27 Jun 14:46:23 14:51:36 56° 259° (W) 14:56:52 435.225
PCSat 27 Jun 14:50:49 14:55:11 24° 325° (NW) 14:59:32 145.827
ISS 27 Jun 14:51:54 14:55:01 40° 213° (SSW) 14:58:08 437.550
VELOX 1 27 Jun 15:09:21 15:13:01 26° 296° (WNW) 15:16:43 145.980
SPROUT 27 Jun 15:16:50 15:19:57 20° 298° (WNW) 15:23:03 437.525
Oscar 19 27 Jun 15:19:43 15:23:26 20° 269° (W) 15:27:09 437.125/150
DX 1 27 Jun 15:22:26 15:26:40 49° 290° (WNW) 15:30:54 434.975-435.025
50 SAT 27 Jun 15:32:36 15:35:03 19° 295° (WNW) 15:37:29 437.505
UKube-1 27 Jun 15:35:44 15:39:56 52° 290° (WNW) 15:44:08 .
ITAMSAT 1 27 Jun 15:59:03 16:04:16 83° 254° (WSW) 16:09:32 435.822/435.867
ITUPSAT 1 27 Jun 15:59:52 16:04:10 31° 96° (E) 16:08:24 437.325
SO-50 27 Jun 16:03:38 16:08:00 44° 317° (NW) 16:12:22 436.795
BEESAT 27 Jun 16:08:27 16:12:56 38° 97° (E) 16:17:22 436.000
AO-7 27 Jun 16:27:52 16:36:02 59° 257° (WSW) 16:44:18 .
DOVE 4 27 Jun 16:33:38 16:35:02 11° 55° (NE) 16:36:27 437.250
PCSat 27 Jun 16:39:10 16:40:40 11° 350° (N) 16:42:11 145.827
MOZHAYETS 4 27 Jun 16:59:40 17:04:17 81° 103° (ESE) 17:08:51
CUTE-I 27 Jun 17:18:03 17:21:45 19° 57° (ENE) 17:25:29 437.470
ITUPSAT 1 27 Jun 17:37:38 17:42:00 36° 294° (WNW) 17:46:21 437.325
NUDT-PHONESAT 27 Jun 17:37:59 17:40:14 15° 62° (ENE) 17:42:29 437.300
ITAMSAT 1 27 Jun 17:42:25 17:44:33 12° 274° (W) 17:46:42 435.822/435.867
CUBESAT XI-V 27 Jun 17:45:47 17:50:15 48° 99° (E) 17:54:42 437.345
BEESAT 27 Jun 17:46:27 17:50:36 30° 296° (WNW) 17:54:44 436.000
SO-50 27 Jun 17:47:07 17:49:36 14° 339° (NNW) 17:52:04 436.795
XW-2F 27 Jun 17:58:26 18:01:47 30° 68° (ENE) 18:05:08 145.980 - 146.000
XW-2D 27 Jun 18:03:38 18:07:10 36° 70° (ENE) 18:10:42 145.860 - 145.880
DOVE 4 27 Jun 18:07:45 18:11:57 85° 79° (ENE) 18:16:22 437.250
XW-2B 27 Jun 18:12:33 18:16:12 43° 71° (ENE) 18:19:52 145.730 - 145.750
LilacSat-2 27 Jun 18:14:08 18:17:52 48° 72° (ENE) 18:21:36 437.200
CUTE 1.7 + AOD 2 27 Jun 18:14:11 18:14:50 10° 56° (ENE) 18:15:28 437.475
KKS-1 27 Jun 18:19:06 18:23:36 68° 103° (ESE) 18:28:04 437.445
PCSat 27 Jun 18:24:15 18:26:40 13° 17° (NNE) 18:29:04 145.827
HO-68 27 Jun 18:25:10 18:31:18 32° 56° (ENE) 18:37:28 435.675
AO-7 27 Jun 18:27:51 18:30:41 12° 278° (W) 18:33:31 .
XW-2C 27 Jun 18:27:57 18:31:46 66° 74° (ENE) 18:35:35 145.795 - 145.815
KAITUO 1B 27 Jun 18:37:10 18:40:55 65° 74° (ENE) 18:44:40 145.475/437.950
MOZHAYETS 4 27 Jun 18:38:15 18:40:50 15° 302° (WNW) 18:43:23
STARS 27 Jun 18:43:15 18:47:37 53° 101° (E) 18:51:58 437.465
CUBEBUG 2 27 Jun 18:44:20 18:46:37 14° 56° (ENE) 18:48:55 437.445
CUTE-I 27 Jun 18:55:53 19:01:13 77° 256° (WSW) 19:06:37 437.470
NUDT-PHONESAT 27 Jun 19:10:04 19:13:45 52° 260° (W) 19:17:27 437.300
UWE-3 27 Jun 19:13:12 19:15:57 16° 58° (ENE) 19:18:42 435.000/436.395/437.385
CUBESAT XI-V 27 Jun 19:23:46 19:27:20 23° 297° (WNW) 19:30:54 437.345
SEEDS 27 Jun 19:24:53 19:28:36 31° 67° (ENE) 19:32:17 437.485
XW-2A 27 Jun 19:28:26 19:31:34 33° 70° (ENE) 19:34:44 145.665 - 145.685
SO-50 27 Jun 19:31:32 19:32:02 10° 4° (N) 19:32:32 436.795
XW-2F 27 Jun 19:32:45 19:35:56 25° 266° (W) 19:39:07 145.980 - 146.000
RS-15 27 Jun 19:36:55 19:44:30 19° 95° (E) 19:52:07 29.354- 29.394
XW-2D 27 Jun 19:38:33 19:41:28 20° 267° (W) 19:44:23 145.860 - 145.880
CUTE 1.7 + AOD 2 27 Jun 19:45:41 19:49:55 77° 75° (ENE) 19:54:10 437.475
XW-2B 27 Jun 19:48:01 19:50:36 17° 269° (W) 19:53:12 145.730 - 145.750
DOVE 4 27 Jun 19:49:39 19:50:24 10° 275° (W) 19:51:08 437.250
LilacSat-2 27 Jun 19:50:01 19:52:25 16° 269° (W) 19:54:50 437.200
KKS-1 27 Jun 19:56:48 19:59:40 17° 301° (WNW) 20:02:31 437.445
AO-85 27 Jun 20:00:59 20:02:51 13° 111° (ESE) 20:04:41 145.980
AO-73 27 Jun 20:02:16 20:05:51 23° 63° (ENE) 20:09:26 145.935
XW-2C 27 Jun 20:04:59 20:06:24 12° 272° (W) 20:07:48 145.795 - 145.815
PCSat 27 Jun 20:06:53 20:11:48 33° 42° (NE) 20:16:41 145.827
AAUSAT CUBESAT 2 27 Jun 20:09:23 20:13:16 43° 70° (ENE) 20:17:11 437.432
HO-68 27 Jun 20:11:27 20:18:36 66° 257° (WSW) 20:25:48 435.675
KAITUO 1B 27 Jun 20:14:03 20:15:21 11° 272° (W) 20:16:38 145.475/437.950
CUBEBUG 2 27 Jun 20:17:49 20:22:28 86° 74° (ENE) 20:27:15 437.445
STARS 27 Jun 20:20:21 20:23:36 20° 299° (WNW) 20:26:51 437.465
BEESAT 3 27 Jun 20:24:06 20:26:03 13° 111° (ESE) 20:28:01 437.485
Oscar 11 27 Jun 20:26:43 20:30:27 29° 66° (ENE) 20:34:12 .
ZACube-1 27 Jun 20:37:30 20:41:56 51° 71° (ENE) 20:46:24 437.345
CUTE-I 27 Jun 20:40:19 20:42:09 12° 275° (W) 20:44:01 437.470
STRAND 1 27 Jun 20:46:24 20:51:30 57° 101° (E) 20:56:33 437.568
UWE-3 27 Jun 20:47:09 20:51:46 80° 257° (WSW) 20:56:30 435.000/436.395/437.385
O/OREOS (USA 219) 27 Jun 20:56:48 20:59:06 14° 99° (E) 21:01:24 437.305
SEEDS 27 Jun 21:00:39 21:04:16 28° 265° (W) 21:07:55 437.485
XW-2A 27 Jun 21:02:00 21:04:25 18° 267° (W) 21:06:52 145.665 - 145.685
SO-50 27 Jun 21:10:59 21:14:16 19° 29° (NNE) 21:17:33 436.795
DELFI C3 27 Jun 21:17:27 21:20:40 25° 66° (ENE) 21:23:54 145.870
CUTE 1.7 + AOD 2 27 Jun 21:24:37 21:26:17 12° 273° (W) 21:27:58 437.475
BEESAT 2 27 Jun 21:26:40 21:29:41 21° 114° (ESE) 21:32:45 435.950
NO-84 27 Jun 21:27:35 21:30:31 20° 129° (SE) 21:33:36 435.350 FM
AO-73 27 Jun 21:37:22 21:41:47 48° 262° (W) 21:46:14 145.935
AO-85 27 Jun 21:38:40 21:42:41 76° 309° (NW) 21:46:38 145.980
RS-15 27 Jun 21:42:32 21:54:34 69° 119° (ESE) 22:06:47 29.354- 29.394
EO-88 27 Jun 21:44:22 21:47:38 31° 69° (ENE) 21:50:55 145.990 - 145.960
AAUSAT CUBESAT 2 27 Jun 21:45:53 21:48:56 20° 268° (W) 21:52:00 437.432
PCSat 27 Jun 21:50:10 21:55:28 54° 243° (WSW) 22:00:43 145.827
CUBEBUG 2 27 Jun 21:57:42 21:59:44 13° 274° (W) 22:01:50 437.445
YUBILEINY 27 Jun 21:57:56 22:06:06 45° 87° (E) 22:14:20 435.215
BEESAT 3 27 Jun 21:59:04 22:03:04 78° 309° (NW) 22:07:08 437.485
FO-29 27 Jun 22:02:27 22:08:54 27° 88° (E) 22:15:16 435.910
Oscar 11 27 Jun 22:02:35 22:06:30 33° 264° (W) 22:10:28 .
HO-68 27 Jun 22:04:43 22:07:44 13° 277° (W) 22:10:45 435.675
ZACube-1 27 Jun 22:15:04 22:18:29 21° 269° (W) 22:21:57 437.345
STRAND 1 27 Jun 22:26:15 22:30:19 24° 300° (WNW) 22:34:22 437.568
UWE-3 27 Jun 22:28:25 22:29:00 10° 276° (W) 22:29:35 435.000/436.395/437.385
TIGRISAT 27 Jun 22:33:01 22:36:26 20° 90° (E) 22:39:47 435.000
O/OREOS (USA 219) 27 Jun 22:33:21 22:37:53 76° 296° (WNW) 22:42:26 437.305
M-CUBED/EXP-1 PRIME 27 Jun 22:49:32 22:52:51 30° 103° (ESE) 22:56:25 437.505
SO-50 27 Jun 22:50:54 22:55:27 78° 49° (NE) 23:00:00 436.795
DELFI C3 27 Jun 22:51:49 22:55:20 31° 264° (W) 22:58:53 145.870
BEESAT 2 27 Jun 23:03:13 23:07:08 51° 313° (NW) 23:11:07 435.950
NO-84 27 Jun 23:03:36 23:07:37 84° 330° (NNW) 23:11:56 435.350 FM
ESTCUBE 1 27 Jun 23:05:29 23:09:21 29° 65° (ENE) 23:13:14 437.505/2401.250
UNISAT 6 27 Jun 23:15:03 23:19:38 52° 99° (E) 23:24:05 437.425
EO-88 27 Jun 23:18:26 23:21:21 22° 266° (W) 23:24:17 145.990 - 145.960
PRISM 27 Jun 23:20:32 23:24:35 55° 101° (E) 23:28:38 437.425
AO-85 27 Jun 23:21:18 23:23:44 16° 331° (NNW) 23:26:10 145.980
LO-87 27 Jun 23:32:43 23:36:17 80° 75° (ENE) 23:39:53 145.935 - 145.965
BEESAT 3 27 Jun 23:38:40 23:41:18 17° 330° (NNW) 23:43:58 437.485
FO-29 27 Jun 23:46:45 23:54:35 78° 288° (WNW) 00:02:22 435.910
YUBILEINY 27 Jun 23:54:25 00:02:53 49° 289° (WNW) 00:11:26 435.215
RS-15 27 Jun 23:55:48 00:07:47 53° 326° (NW) 00:19:49 29.354- 29.394
TIGRISAT 28 Jun 00:08:53 00:13:27 53° 289° (WNW) 00:17:53 435.000
EO-79 28 Jun 00:12:12 00:14:36 14° 89° (E) 00:16:58 145.935-145.965
O/OREOS (USA 219) 28 Jun 00:15:49 00:18:07 14° 318° (NW) 00:20:26 437.305
AIST 2D 28 Jun 00:20:15 00:23:26 31° 96° (E) 00:26:35 435.315
DUCHIFAT 1 28 Jun 00:23:18 00:25:50 15° 90° (E) 00:28:20 145.980
M-CUBED/EXP-1 PRIME 28 Jun 00:24:06 00:27:16 27° 298° (WNW) 00:30:37 437.505
NANOSAT C BR1 28 Jun 00:32:33 00:35:49 21° 92° (E) 00:39:03 145.865
SO-50 28 Jun 00:32:36 00:35:20 16° 249° (WSW) 00:38:05 436.795
VELOX 1 28 Jun 00:33:00 00:37:15 53° 71° (ENE) 00:41:33 145.980
50 SAT 28 Jun 00:34:48 00:37:29 22° 66° (ENE) 00:40:10 437.505
SPROUT 28 Jun 00:36:34 00:40:47 61° 72° (ENE) 00:45:03 437.525
NO-84 28 Jun 00:41:46 00:45:39 36° 350° (N) 00:49:42 435.350 FM
ESTCUBE 1 28 Jun 00:41:57 00:46:04 35° 263° (W) 00:50:13 437.505/2401.250
BEESAT 2 28 Jun 00:43:46 00:45:49 13° 335° (NNW) 00:47:52 435.950
DX 1 28 Jun 00:45:47 00:49:25 27° 65° (ENE) 00:53:06 434.975-435.025
UNISAT 6 28 Jun 00:52:25 00:55:59 22° 298° (WNW) 00:59:29 437.425
PRISM 28 Jun 00:56:47 00:59:29 17° 299° (WNW) 01:02:11 437.425
UKube-1 28 Jun 00:58:14 01:01:46 25° 64° (ENE) 01:05:19 .
POLYITAN 1 28 Jun 01:11:51 01:16:06 56° 100° (E) 01:20:18 437.675
QB50P2 28 Jun 01:22:48 01:27:08 80° 104° (ESE) 01:31:24 145.880/145.840
BUGSAT 1 28 Jun 01:23:30 01:26:42 20° 92° (E) 01:29:53 437.445
FO-29 28 Jun 01:32:52 01:38:29 23° 308° (NW) 01:44:10 435.910
BEESAT 28 Jun 01:44:32 01:45:55 11° 53° (NE) 01:47:19 436.000
EO-79 28 Jun 01:46:31 01:50:47 65° 287° (WNW) 01:55:01 145.935-145.965
Oscar 19 28 Jun 01:47:30 01:50:43 16° 89° (E) 01:53:53 437.125/150
AIST 2D 28 Jun 01:53:52 01:56:28 20° 294° (WNW) 01:59:04 435.315
DUCHIFAT 1 28 Jun 01:57:40 02:01:53 60° 288° (WNW) 02:06:04 145.980
YUBILEINY 28 Jun 01:58:57 02:02:28 13° 316° (NW) 02:06:01 435.215
50 SAT 28 Jun 02:07:19 02:10:11 25° 264° (W) 02:13:04 437.505
NANOSAT C BR1 28 Jun 02:07:39 02:11:43 43° 290° (WNW) 02:15:45 145.865
VELOX 1 28 Jun 02:11:01 02:14:02 18° 269° (W) 02:17:04 145.980
RS-15 28 Jun 02:12:36 02:23:47 36° 359° (N) 02:34:43 29.354- 29.394
SPROUT 28 Jun 02:14:34 02:17:07 15° 271° (W) 02:19:39 437.525
NO-84 28 Jun 02:19:59 02:24:01 37° 11° (NNE) 02:28:07 435.350 FM
DX 1 28 Jun 02:21:32 02:25:30 35° 263° (W) 02:29:30 434.975-435.025
MOZHAYETS 4 28 Jun 02:29:45 02:32:43 17° 59° (ENE) 02:35:41
UKube-1 28 Jun 02:33:38 02:37:38 38° 262° (W) 02:41:41 .
AO-85 28 Jun 02:46:57 02:48:13 11° 22° (NNE) 02:49:29 145.980
POLYITAN 1 28 Jun 02:48:33 02:51:29 18° 299° (WNW) 02:54:23 437.675
BUGSAT 1 28 Jun 02:58:12 03:02:16 44° 290° (WNW) 03:06:18 437.445
Gurwin Techsat 1B 28 Jun 02:58:43 03:03:48 43° 98° (E) 03:08:51 435.225
BEESAT 3 28 Jun 02:59:44 03:00:06 10° 18° (NNE) 03:00:27 437.485
QB50P2 28 Jun 03:00:09 03:02:19 14° 302° (WNW) 03:04:28 145.880/145.840
ITUPSAT 1 28 Jun 03:09:47 03:14:28 55° 70° (ENE) 03:19:12 437.325
BEESAT 28 Jun 03:18:03 03:22:48 67° 72° (ENE) 03:27:35 436.000
CUBESAT XI-V 28 Jun 03:19:01 03:20:20 11° 55° (NE) 03:21:37 437.345
Oscar 19 28 Jun 03:25:29 03:30:36 75° 288° (WNW) 03:35:43 437.125/150
KKS-1 28 Jun 03:46:35 03:48:53 14° 57° (ENE) 03:51:11 437.445
NO-84 28 Jun 03:57:39 04:02:02 86° 31° (NNE) 04:06:25 435.350 FM
BEESAT 2 28 Jun 04:03:14 04:05:02 12° 23° (NNE) 04:06:50 435.950
MOZHAYETS 4 28 Jun 04:04:43 04:09:21 71° 258° (WSW) 04:14:00
ITAMSAT 1 28 Jun 04:08:36 04:12:59 26° 94° (E) 04:17:20 435.822/435.867
STARS 28 Jun 04:10:36 04:11:48 11° 54° (NE) 04:12:59 437.465
AO-7 28 Jun 04:25:08 04:32:55 40° 98° (E) 04:40:37 .
AO-85 28 Jun 04:25:52 04:29:40 38° 44° (NE) 04:33:40 145.980
RS-15 28 Jun 04:27:51 04:39:49 51° 32° (NNE) 04:51:17 29.354- 29.394
BEESAT 3 28 Jun 04:35:18 04:38:55 30° 40° (NE) 04:42:30 437.485
Gurwin Techsat 1B 28 Jun 04:38:58 04:43:37 31° 297° (WNW) 04:48:15 435.225
ITUPSAT 1 28 Jun 04:49:04 04:52:38 20° 268° (W) 04:56:14 437.325
CUBESAT XI-V 28 Jun 04:52:15 04:56:52 72° 74° (ENE) 05:01:29 437.345
BEESAT 28 Jun 04:57:58 05:01:03 17° 270° (W) 05:04:09 436.000
Oscar 19 28 Jun 05:06:41 05:09:05 13° 307° (NW) 05:11:29 437.125/150
KKS-1 28 Jun 05:20:23 05:24:48 84° 256° (WSW) 05:29:18 437.445
NO-84 28 Jun 05:35:51 05:39:14 22° 230° (SW) 05:42:33 435.350 FM
BEESAT 2 28 Jun 05:39:52 05:43:48 44° 45° (NE) 05:47:41 435.950
STARS 28 Jun 05:42:58 05:47:21 75° 73° (ENE) 05:51:46 437.465
ITAMSAT 1 28 Jun 05:47:38 05:52:41 49° 292° (WNW) 05:57:42 435.822/435.867
DOVE 4 28 Jun 06:02:37 06:06:17 20° 91° (E) 06:10:03 437.250
AO-85 28 Jun 06:06:23 06:09:59 30° 242° (WSW) 06:13:46 145.980
BEESAT 3 28 Jun 06:12:49 06:16:35 38° 240° (WSW) 06:20:16 437.485
AO-7 28 Jun 06:17:50 06:25:59 57° 298° (WNW) 06:34:05 .
STRAND 1 28 Jun 06:28:45 06:32:22 20° 58° (ENE) 06:35:59 437.568
CUBESAT XI-V 28 Jun 06:32:10 06:34:46 15° 272° (W) 06:37:21 437.345
NUDT-PHONESAT 28 Jun 06:38:37 06:39:52 11° 88° (E) 06:41:06 437.300
